Beatrice, NE (68310)

6:55 PM CDT on August 30, 2015 (GMT -0500)
Beatrice Municipal | | Change Station
CLOSE
Current Station
Airport
Location: Beatrice,
Elevation: 1322 ft
Nearby Weather Stations

Elev 1322 ft 40.30 °N, 96.75 °W | Updated 20 minutes ago

Clear
Clear
77 °F
Feels Like 77 °F
N
7
Wind Variable Wind from South

Today
High -- | Low -- °F
--% Chance of Precip.
Yesterday
High -- | Low -- °F
Precip. -- in
6:52 AM 8:02 PM
Full, 98% visible
Pressure 29.97 in
Visibility 10.0 miles
Clouds Clear
Dew Point 67 °F
Humidity 71%
Rainfall 0.00 in
Snow Depth Not available.
UV 1 out of 12
Pollen 10.40 out of 12
Air Quality Not available.
Flu Activity Not available.
METAR KBIE 302335Z AUTO 18006KT 10SM CLR 25/19 A2997 RMK AO2 T02500194
Pressure 29.97 in
Visibility 10.0 miles
Clouds Clear
Dew Point 67 °F
Humidity 71%
Rainfall 0.00 in
Snow Depth Not available.
UV 1 out of 12
Pollen 10.40 out of 12
Air Quality Not available.
Flu Activity Not available.
METAR KBIE 302335Z AUTO 18006KT 10SM CLR 25/19 A2997 RMK AO2 T02500194

10-Day Weather Forecast

×

Almanac

Astronomy

Aug. 30, 2015 Rise Set
Actual Time
Civil Twilight
Nautical Twilight
Astronomical Twilight
Moon
Length of Visible Light
Length of Day
Tomorrow will be .
, % of the Moon is Illuminated

Today's Extremes

State Highs State Lows

Community

WunderPhotos

Upload Photos

1,851,095 photos uploaded!

WunderBlogs® & News

Nearby

Air Quality

  Air Quality AQ Index Pollutant
Not available.

Snow Depth

Station Depth Elevation

Earthquake Activity

City Distance Mag. Time & Date
Minimum magnitude displayed is 2.5.

Coastal Water Temperatures

Place Temperature

Stations

Nearby Weather Stations

Station Location Temp. Windchill Dew Point Humidity Wind Precip. Elev Updated Type